,,,PA_Meas_PMT16A,,PR_Meas_QMR101_102,,RH_Meas_QMH101,,SR_Meas_QMS101,,TA_Meas_QMH101,,GenWind,,GenWind,
date,time,status,PA,status,PR,status,RH,status,SR,status,TA,status,DirAvg,status,SpdAvg,
2009-08-22, 00:00:04,VALID,1000.72,VALID,0,VALID,91.7462,VALID,0,VALID,23.3518,VALID,1,VALID,0.276953,
2009-08-22, 00:01:04,VALID,1000.7,VALID,0,VALID,91.792,VALID,0,VALID,23.35,VALID,22,VALID,0.850781,
2009-08-22, 00:02:04,VALID,1000.69,VALID,0,VALID,91.647,VALID,0,VALID,23.35,VALID,27,VALID,1.11367,
2009-08-22, 00:03:04,VALID,1000.68,VALID,0,VALID,91.5173,VALID,0,VALID,23.35,VALID,32,VALID,1.12656,
2009-08-22, 00:04:04,VALID,1000.65,VALID,0,VALID,91.4563,VALID,0,VALID,23.35,VALID,35,VALID,1.35859,
2009-08-22, 00:05:04,VALID,1000.68,VALID,0,VALID,91.2197,VALID,0,VALID,23.3518,VALID,37,VALID,1.09687,
2009-08-22, 00:06:04,VALID,1000.72,VALID,0,VALID,91.1968,VALID,0,VALID,23.311,VALID,38,VALID,0.601953,
2009-08-22, 00:07:04,VALID,1000.71,VALID,0,VALID,91.1892,VALID,0,VALID,23.2932,VALID,38,VALID,0.385547,
2009-08-22, 00:08:04,VALID,1000.7,VALID,0,VALID,91.3189,VALID,0,VALID,23.2932,VALID,38,VALID,0.0699219,
2009-08-22, 00:09:04,VALID,1000.73,VALID,0,VALID,91.4257,VALID,0,VALID,23.2524,VALID,168,VALID,0.644141,
2009-08-22, 00:10:04,VALID,1000.69,VALID,0,VALID,91.5554,VALID,0,VALID,23.2915,VALID,205,VALID,0.192969,
2009-08-22, 00:11:04,VALID,1000.69,VALID,0,VALID,91.5402,VALID,0,VALID,23.3127,VALID,205,VALID,0,
2009-08-22, 00:12:04,VALID,1000.69,VALID,0,VALID,91.5402,VALID,0,VALID,23.2915,VALID,205,VALID,0,
2009-08-22, 00:13:04,VALID,1000.66,VALID,0,VALID,91.6165,VALID,0,VALID,23.2932,VALID,205,VALID,0.003125,
2009-08-22, 00:14:04,VALID,1000.69,VALID,0,VALID,91.6165,VALID,0,VALID,23.3127,VALID,205,VALID,0,
2009-08-22, 00:15:04,VALID,1000.68,VALID,0,VALID,91.586,VALID,0,VALID,23.2915,VALID,205,VALID,0,
2009-08-22, 00:16:04,VALID,1000.66,VALID,0,VALID,91.6775,VALID,0,VALID,23.3323,VALID,205,VALID,0.244531,
2009-08-22, 00:17:04,VALID,1000.65,VALID,0,VALID,91.708,VALID,0,VALID,23.3323,VALID,205,VALID,0.0820313,
2009-08-22, 00:18:04,VALID,1000.62,VALID,0,VALID,91.7462,VALID,0,VALID,23.3305,VALID,205,VALID,0.164844,
2009-08-22, 00:19:04,VALID,1000.64,VALID,0,VALID,91.7996,VALID,0,VALID,23.3695,VALID,205,VALID,0.255859,
2009-08-22, 00:20:04,VALID,1000.59,VALID,0,VALID,91.8225,VALID,0,VALID,23.3695,VALID,205,VALID,0.341016,
2009-08-22, 00:21:04,VALID,1000.61,VALID,0,VALID,91.8301,VALID,0,VALID,23.389,VALID,205,VALID,0.372266,
2009-08-22, 00:22:04,VALID,1000.61,VALID,0,VALID,91.7996,VALID,0,VALID,23.4493,VALID,184,VALID,0.415625,
2009-08-22, 00:23:04,VALID,1000.59,VALID,0,VALID,91.7996,VALID,0,VALID,23.4671,VALID,184,VALID,0.157031,
2009-08-22, 00:24:04,VALID,1000.55,VALID,0,VALID,91.7691,VALID,0,VALID,23.4866,VALID,184,VALID,0.071875,
2009-08-22, 00:25:04,VALID,1000.53,VALID,0,VALID,91.7233,VALID,0,VALID,23.4866,VALID,184,VALID,0,
2009-08-22, 00:26:04,VALID,1000.51,VALID,0,VALID,91.5554,VALID,0,VALID,23.4884,VALID,184,VALID,0.466016,
2009-08-22, 00:27:04,VALID,1000.5,VALID,0,VALID,91.4486,VALID,0,VALID,23.4671,VALID,184,VALID,0.588281,
2009-08-22, 00:28:04,VALID,1000.5,VALID,0,VALID,90.9909,VALID,0,VALID,23.4085,VALID,184,VALID,0.813281,
2009-08-22, 00:29:04,VALID,1000.45,VALID,0,VALID,91.0977,VALID,0,VALID,23.3518,VALID,250,VALID,1.02656,
2009-08-22, 00:30:04,VALID,1000.47,VALID,0,VALID,91.3494,VALID,0,VALID,23.2915,VALID,357,VALID,0.725,
2009-08-22, 00:31:04,VALID,1000.43,VALID,0,VALID,91.3952,VALID,0,VALID,23.2542,VALID,357,VALID,0.953516,
2009-08-22, 00:32:04,VALID,1000.43,VALID,0,VALID,91.6851,VALID,0,VALID,23.2542,VALID,5,VALID,1.02148,
2009-08-22, 00:33:04,VALID,1000.43,VALID,0,VALID,91.998,VALID,0,VALID,23.2542,VALID,14,VALID,0.730078,
2009-08-22, 00:34:04,VALID,1000.44,VALID,0,VALID,91.8759,VALID,0,VALID,23.2542,VALID,14,VALID,0.551562,
2009-08-22, 00:35:04,VALID,1000.45,VALID,0,VALID,92.1277,VALID,0,VALID,23.2719,VALID,19,VALID,0.615625,
2009-08-22, 00:36:04,VALID,1000.45,VALID,0,VALID,91.8301,VALID,0,VALID,23.2719,VALID,19,VALID,0.983203,
2009-08-22, 00:37:04,VALID,1000.44,VALID,0,VALID,91.9598,VALID,0,VALID,23.2915,VALID,19,VALID,1.02109,
2009-08-22, 00:38:04,VALID,1000.44,VALID,0,VALID,91.9217,VALID,0,VALID,23.2915,VALID,19,VALID,0.969141,
2009-08-22, 00:39:04,VALID,1000.41,VALID,0,VALID,91.7767,VALID,0,VALID,23.3323,VALID,21,VALID,0.921094,
2009-08-22, 00:40:04,VALID,1000.42,VALID,0,VALID,91.5707,VALID,0,VALID,23.2915,VALID,21,VALID,0.879297,
2009-08-22, 00:41:04,VALID,1000.41,VALID,0,VALID,91.7691,VALID,0,VALID,23.2719,VALID,21,VALID,0.816797,
2009-08-22, 00:42:04,VALID,1000.38,VALID,0,VALID,91.5936,VALID,0,VALID,23.2524,VALID,22,VALID,0.794141,
2009-08-22, 00:43:04,VALID,1000.38,VALID,0,VALID,91.8377,VALID,0,VALID,23.2524,VALID,32,VALID,1.08086,
2009-08-22, 00:44:04,VALID,1000.35,VALID,0,VALID,92.0056,VALID,0,VALID,23.2719,VALID,39,VALID,0.871875,
2009-08-22, 00:45:04,VALID,1000.35,VALID,0,VALID,91.8683,VALID,0,VALID,23.2932,VALID,45,VALID,1.02695,
2009-08-22, 00:46:04,VALID,1000.37,VALID,0,VALID,91.853,VALID,0,VALID,23.2932,VALID,57,VALID,0.979688,
2009-08-22, 00:47:04,VALID,1000.36,VALID,0,VALID,91.8377,VALID,0,VALID,23.2719,VALID,63,VALID,0.920703,
2009-08-22, 00:48:04,VALID,1000.35,VALID,0,VALID,92.0056,VALID,0,VALID,23.2915,VALID,63,VALID,0.827344,
2009-08-22, 00:49:04,VALID,1000.37,VALID,0,VALID,92.1277,VALID,0,VALID,23.311,VALID,63,VALID,0.714453,
2009-08-22, 00:50:04,VALID,1000.35,VALID,0,VALID,92.0971,VALID,0,VALID,23.3305,VALID,63,VALID,0.596484,
2009-08-22, 00:51:04,VALID,1000.37,VALID,0,VALID,92.0743,VALID,0,VALID,23.3305,VALID,63,VALID,0.554688,
2009-08-22, 00:52:04,VALID,1000.32,VALID,0,VALID,92.0514,VALID,0,VALID,23.35,VALID,58,VALID,0.824219,
2009-08-22, 00:53:04,VALID,1000.31,VALID,0,VALID,92.0209,VALID,0,VALID,23.35,VALID,48,VALID,0.775,
2009-08-22, 00:54:04,VALID,1000.31,VALID,0,VALID,91.8072,VALID,0,VALID,23.3305,VALID,45,VALID,0.410547,
2009-08-22, 00:55:04,VALID,1000.31,VALID,0,VALID,91.6775,VALID,0,VALID,23.311,VALID,45,VALID,0.441797,
2009-08-22, 00:56:04,VALID,1000.31,VALID,0,VALID,91.7462,VALID,0,VALID,23.2932,VALID,8,VALID,0.539063,
2009-08-22, 00:57:04,VALID,1000.29,VALID,0,VALID,91.8911,VALID,0,VALID,23.2719,VALID,345,VALID,0.540234,
2009-08-22, 00:58:04,VALID,1000.3,VALID,0,VALID,92.0056,VALID,0,VALID,23.2524,VALID,345,VALID,0.475391,
2009-08-22, 00:59:04,VALID,1000.31,VALID,0,VALID,92.0361,VALID,0,VALID,23.2524,VALID,345,VALID,0.288281,
2009-08-22, 01:00:04,VALID,1000.29,VALID,0,VALID,92.0666,VALID,0,VALID,23.2329,VALID,345,VALID,0.408594,
2009-08-22, 01:01:04,VALID,1000.29,VALID,0,VALID,92.0437,VALID,0,VALID,23.2329,VALID,345,VALID,0.222656,
2009-08-22, 01:02:04,VALID,1000.27,VALID,0,VALID,92.0666,VALID,0,VALID,23.2134,VALID,345,VALID,0.205078,
2009-08-22, 01:03:04,VALID,1000.29,VALID,0,VALID,92.0514,VALID,0,VALID,23.2152,VALID,345,VALID,0.0976563,
2009-08-22, 01:04:04,VALID,1000.28,VALID,0,VALID,92.1353,VALID,0,VALID,23.1744,VALID,345,VALID,0.0945313,
2009-08-22, 01:05:04,VALID,1000.32,VALID,0,VALID,92.1582,VALID,0,VALID,23.1744,VALID,345,VALID,0,
2009-08-22, 01:06:04,VALID,1000.31,VALID,0,VALID,92.1811,VALID,0,VALID,23.1549,VALID,345,VALID,0,
2009-08-22, 01:07:04,VALID,1000.3,VALID,0,VALID,92.2192,VALID,0,VALID,23.1354,VALID,345,VALID,0.356641,
2009-08-22, 01:08:04,VALID,1000.3,VALID,0,VALID,92.3031,VALID,0,VALID,23.1354,VALID,345,VALID,0.481641,
2009-08-22, 01:09:04,VALID,1000.32,VALID,0,VALID,92.4328,VALID,0,VALID,23.1549,VALID,345,VALID,0.480469,
2009-08-22, 01:10:04,VALID,1000.29,VALID,0,VALID,92.4252,VALID,0,VALID,23.1549,VALID,49,VALID,0.758203,
2009-08-22, 01:11:04,VALID,1000.3,VALID,0,VALID,92.4634,VALID,0,VALID,23.1549,VALID,48,VALID,0.730078,
2009-08-22, 01:12:04,VALID,1000.29,VALID,0,VALID,92.4557,VALID,0,VALID,23.1549,VALID,34,VALID,0.605469,
2009-08-22, 01:13:04,VALID,1000.29,VALID,0,VALID,92.4252,VALID,0,VALID,23.1549,VALID,34,VALID,0.740234,
2009-08-22, 01:14:04,VALID,1000.26,VALID,0,VALID,92.5473,VALID,0,VALID,23.1762,VALID,32,VALID,0.642187,
2009-08-22, 01:15:04,VALID,1000.22,VALID,0,VALID,92.532,VALID,0,VALID,23.1744,VALID,24,VALID,0.630078,
2009-08-22, 01:16:04,VALID,1000.23,VALID,0,VALID,92.5091,VALID,0,VALID,23.1744,VALID,15,VALID,0.681641,
2009-08-22, 01:17:04,VALID,1000.22,VALID,0,VALID,92.5397,VALID,0,VALID,23.1957,VALID,4,VALID,0.799219,
2009-08-22, 01:18:04,VALID,1000.23,VALID,0,VALID,92.6388,VALID,0,VALID,23.1744,VALID,350,VALID,0.492188,
2009-08-22, 01:19:04,VALID,1000.22,VALID,0,VALID,92.5778,VALID,0,VALID,23.1939,VALID,346,VALID,0.569141,
2009-08-22, 01:20:04,VALID,1000.22,VALID,0,VALID,92.6007,VALID,0,VALID,23.1939,VALID,310,VALID,0.571094,
2009-08-22, 01:21:04,VALID,1000.24,VALID,0,VALID,92.5854,VALID,0,VALID,23.2152,VALID,303,VALID,0.498828,
2009-08-22, 01:22:04,VALID,1000.21,VALID,0,VALID,92.6312,VALID,0,VALID,23.2347,VALID,297,VALID,0.653125,
2009-08-22, 01:23:04,VALID,1000.18,VALID,0,VALID,92.6617,VALID,0,VALID,23.2134,VALID,294,VALID,0.582422,
2009-08-22, 01:24:04,VALID,1000.16,VALID,0,VALID,92.6617,VALID,0,VALID,23.2542,VALID,280,VALID,0.760547,
2009-08-22, 01:25:04,VALID,1000.15,VALID,0,VALID,92.6617,VALID,0,VALID,23.2524,VALID,281,VALID,0.594922,
2009-08-22, 01:26:04,VALID,1000.13,VALID,0,VALID,92.6083,VALID,0,VALID,23.2542,VALID,291,VALID,0.662109,
2009-08-22, 01:27:04,VALID,1000.09,VALID,0,VALID,92.5931,VALID,0,VALID,23.2524,VALID,292,VALID,0.540234,
2009-08-22, 01:28:04,VALID,1000.05,VALID,0,VALID,92.5931,VALID,0,VALID,23.2524,VALID,303,VALID,0.485156,
2009-08-22, 01:29:04,VALID,1000.04,VALID,0,VALID,92.6083,VALID,0,VALID,23.2524,VALID,326,VALID,0.653125,
2009-08-22, 01:30:04,VALID,1000.02,VALID,0,VALID,92.5854,VALID,0,VALID,23.2524,VALID,332,VALID,0.746484,
2009-08-22, 01:31:04,VALID,1000,VALID,0,VALID,92.5778,VALID,0,VALID,23.2737,VALID,332,VALID,0.732813,
2009-08-22, 01:32:04,VALID,1000.03,VALID,0,VALID,92.5931,VALID,0,VALID,23.2329,VALID,332,VALID,0.746094,
2009-08-22, 01:33:04,VALID,999.985,VALID,0,VALID,92.5702,VALID,0,VALID,23.2329,VALID,332,VALID,0.923047,
2009-08-22, 01:34:04,VALID,999.997,VALID,0,VALID,92.5702,VALID,0,VALID,23.2329,VALID,332,VALID,0.857031,
2009-08-22, 01:35:04,VALID,999.974,VALID,0,VALID,92.5549,VALID,0,VALID,23.2347,VALID,332,VALID,0.757031,
2009-08-22, 01:36:04,VALID,999.988,VALID,0,VALID,92.5702,VALID,0,VALID,23.1939,VALID,331,VALID,0.646875,
2009-08-22, 01:37:04,VALID,999.96,VALID,0,VALID,92.6236,VALID,0,VALID,23.2152,VALID,331,VALID,0.667969,
2009-08-22, 01:38:04,VALID,999.939,VALID,0,VALID,92.6541,VALID,0,VALID,23.2152,VALID,332,VALID,0.715234,
2009-08-22, 01:39:04,VALID,999.921,VALID,0,VALID,92.677,VALID,0,VALID,23.1726,VALID,332,VALID,0.685938,
2009-08-22, 01:40:04,VALID,999.889,VALID,0,VALID,92.738,VALID,0,VALID,23.1939,VALID,332,VALID,0.537891,
2009-08-22, 01:41:04,VALID,999.903,VALID,0,VALID,92.7762,VALID,0,VALID,23.2134,VALID,332,VALID,0.555078,
2009-08-22, 01:42:04,VALID,999.886,VALID,0,VALID,92.7914,VALID,0,VALID,23.2347,VALID,332,VALID,0.644531,
2009-08-22, 01:43:04,VALID,999.89,VALID,0,VALID,92.822,VALID,0,VALID,23.2134,VALID,332,VALID,0.480078,
2009-08-22, 01:44:04,VALID,999.891,VALID,0,VALID,92.7533,VALID,0,VALID,23.2347,VALID,332,VALID,0.460938,
2009-08-22, 01:45:04,VALID,999.871,VALID,0,VALID,92.7991,VALID,0,VALID,23.2134,VALID,332,VALID,0.423438,
2009-08-22, 01:46:04,VALID,999.865,VALID,0,VALID,92.7609,VALID,0,VALID,23.2347,VALID,332,VALID,0.379687,
2009-08-22, 01:47:04,VALID,999.845,VALID,0,VALID,92.7228,VALID,0,VALID,23.2152,VALID,332,VALID,0.342969,
2009-08-22, 01:48:04,VALID,999.831,VALID,0,VALID,92.6846,VALID,0,VALID,23.1939,VALID,332,VALID,0.486328,
2009-08-22, 01:49:04,VALID,999.82,VALID,0,VALID,92.7228,VALID,0,VALID,23.1744,VALID,333,VALID,0.515234,
2009-08-22, 01:50:04,VALID,999.833,VALID,0,VALID,92.7304,VALID,0,VALID,23.1566,VALID,35,VALID,0.697266,
2009-08-22, 01:51:04,VALID,999.822,VALID,0,VALID,92.6541,VALID,0,VALID,23.1762,VALID,33,VALID,0.607422,
2009-08-22, 01:52:04,VALID,999.809,VALID,0,VALID,92.5854,VALID,0,VALID,23.1159,VALID,21,VALID,0.692578,
2009-08-22, 01:53:04,VALID,999.798,VALID,0,VALID,92.5931,VALID,0,VALID,23.1176,VALID,17,VALID,1.12383,
2009-08-22, 01:54:04,VALID,999.758,VALID,0,VALID,92.5931,VALID,0,VALID,23.0786,VALID,12,VALID,1.04727,
2009-08-22, 01:55:04,VALID,999.736,VALID,0,VALID,92.5778,VALID,0,VALID,23.0378,VALID,11,VALID,0.838281,
2009-08-22, 01:56:04,VALID,999.725,VALID,0,VALID,92.5854,VALID,0,VALID,23.0201,VALID,12,VALID,0.680078,
2009-08-22, 01:57:04,VALID,999.759,VALID,0,VALID,92.616,VALID,0,VALID,22.9988,VALID,12,VALID,0.738672,
2009-08-22, 01:58:04,VALID,999.735,VALID,0,VALID,92.6617,VALID,0,VALID,22.9793,VALID,12,VALID,0.607422,
2009-08-22, 01:59:04,VALID,999.738,VALID,0,VALID,92.6388,VALID,0,VALID,22.9598,VALID,12,VALID,0.40625,
2009-08-22, 02:00:04,VALID,999.761,VALID,0,VALID,92.6541,VALID,0,VALID,22.9403,VALID,12,VALID,0.322656,
2009-08-22, 02:01:04,VALID,999.772,VALID,0,VALID,92.616,VALID,0,VALID,22.942,VALID,12,VALID,0,
2009-08-22, 02:02:04,VALID,999.777,VALID,0,VALID,92.6007,VALID,0,VALID,22.9013,VALID,12,VALID,0,
2009-08-22, 02:03:04,VALID,999.791,VALID,0,VALID,92.616,VALID,0,VALID,22.8818,VALID,11,VALID,0,
2009-08-22, 02:04:04,VALID,999.822,VALID,0,VALID,92.6617,VALID,0,VALID,22.8835,VALID,11,VALID,0,
2009-08-22, 02:05:04,VALID,999.833,VALID,0,VALID,92.6465,VALID,0,VALID,22.8427,VALID,12,VALID,0.23125,
2009-08-22, 02:06:04,VALID,999.839,VALID,0,VALID,92.6541,VALID,0,VALID,22.8232,VALID,12,VALID,0.416406,
2009-08-22, 02:07:04,VALID,999.876,VALID,0,VALID,92.7075,VALID,0,VALID,22.8037,VALID,12,VALID,0.476172,
2009-08-22, 02:08:04,VALID,999.894,VALID,0,VALID,92.677,VALID,0,VALID,22.8055,VALID,21,VALID,0.469531,
2009-08-22, 02:09:04,VALID,999.892,VALID,0,VALID,92.7228,VALID,0,VALID,22.786,VALID,21,VALID,0.520703,
2009-08-22, 02:10:04,VALID,999.932,VALID,0,VALID,92.8906,VALID,0,VALID,22.8055,VALID,21,VALID,0.397656,
2009-08-22, 02:11:04,VALID,999.923,VALID,0,VALID,92.9822,VALID,0,VALID,22.825,VALID,21,VALID,0.297266,
2009-08-22, 02:12:04,VALID,999.897,VALID,0,VALID,93.0432,VALID,0,VALID,22.8445,VALID,21,VALID,0.348047,
2009-08-22, 02:13:04,VALID,999.921,VALID,0,VALID,93.0737,VALID,0,VALID,22.8835,VALID,21,VALID,0.389453,
2009-08-22, 02:14:04,VALID,999.909,VALID,0,VALID,93.0508,VALID,0,VALID,22.903,VALID,21,VALID,0,
2009-08-22, 02:15:04,VALID,999.882,VALID,0,VALID,93.089,VALID,0,VALID,22.942,VALID,21,VALID,0.123828,
2009-08-22, 02:16:04,VALID,999.858,VALID,0,VALID,93.1195,VALID,0,VALID,22.9403,VALID,21,VALID,0.00351562,
2009-08-22, 02:17:05,VALID,999.831,VALID,0,VALID,93.1653,VALID,0,VALID,23.0006,VALID,21,VALID,0.191016,
2009-08-22, 02:18:05,VALID,999.817,VALID,0,VALID,93.2034,VALID,0,VALID,23.0183,VALID,21,VALID,0.372266,
2009-08-22, 02:19:05,VALID,999.812,VALID,0,VALID,93.2492,VALID,0,VALID,23.0786,VALID,101,VALID,0.607031,
2009-08-22, 02:20:05,VALID,999.81,VALID,0,VALID,93.2034,VALID,0,VALID,23.1176,VALID,101,VALID,0.678906,
2009-08-22, 02:21:05,VALID,999.773,VALID,0,VALID,93.1577,VALID,0,VALID,23.1371,VALID,101,VALID,0.467187,
2009-08-22, 02:22:05,VALID,999.779,VALID,0,VALID,93.15,VALID,0,VALID,23.1354,VALID,101,VALID,0.414063,
2009-08-22, 02:23:05,VALID,999.759,VALID,0,VALID,93.1577,VALID,0,VALID,23.1549,VALID,101,VALID,0.281641,
2009-08-22, 02:24:05,VALID,999.781,VALID,0,VALID,93.0737,VALID,0,VALID,23.1549,VALID,98,VALID,0.419922,
2009-08-22, 02:25:05,VALID,999.769,VALID,0,VALID,93.0051,VALID,0,VALID,23.1957,VALID,19,VALID,0.914453,
2009-08-22, 02:26:05,VALID,999.774,VALID,0,VALID,92.9745,VALID,0,VALID,23.1762,VALID,15,VALID,1.14609,
2009-08-22, 02:27:05,VALID,999.717,VALID,0,VALID,92.9974,VALID,0,VALID,23.1744,VALID,359,VALID,1.24531,
2009-08-22, 02:28:05,VALID,999.781,VALID,0,VALID,93.0508,VALID,0,VALID,23.1957,VALID,357,VALID,0.878516,
2009-08-22, 02:29:05,VALID,999.783,VALID,0,VALID,92.9669,VALID,0,VALID,23.1957,VALID,356,VALID,1.0832,
2009-08-22, 02:30:05,VALID,999.796,VALID,0,VALID,93.0051,VALID,0,VALID,23.2152,VALID,356,VALID,0.630469,
2009-08-22, 02:31:05,VALID,999.785,VALID,0,VALID,92.883,VALID,0,VALID,23.2152,VALID,354,VALID,0.778125,
2009-08-22, 02:32:05,VALID,999.797,VALID,0,VALID,92.8448,VALID,0,VALID,23.2152,VALID,354,VALID,0.914844,
2009-08-22, 02:33:05,VALID,999.832,VALID,0,VALID,92.8754,VALID,0,VALID,23.1939,VALID,348,VALID,1.33516,
2009-08-22, 02:34:05,VALID,999.878,VALID,0,VALID,92.8372,VALID,0,VALID,23.1957,VALID,337,VALID,1.7707,
2009-08-22, 02:35:05,VALID,999.882,VALID,0,VALID,92.883,VALID,0,VALID,23.2152,VALID,329,VALID,1.62578,
2009-08-22, 02:36:05,VALID,999.877,VALID,0,VALID,92.8754,VALID,0,VALID,23.2152,VALID,328,VALID,1.37539,
2009-08-22, 02:37:05,VALID,999.879,VALID,0,VALID,92.7991,VALID,0,VALID,23.2152,VALID,326,VALID,1.27656,
2009-08-22, 02:38:05,VALID,999.881,VALID,0,VALID,92.7151,VALID,0,VALID,23.1939,VALID,341,VALID,1.95703,
2009-08-22, 02:39:05,VALID,999.879,VALID,0,VALID,92.6617,VALID,0,VALID,23.2152,VALID,355,VALID,1.15078,
2009-08-22, 02:40:05,VALID,999.889,VALID,0,VALID,92.677,VALID,0,VALID,23.2134,VALID,353,VALID,0.947266,
2009-08-22, 02:41:05,VALID,999.844,VALID,0,VALID,92.6617,VALID,0,VALID,23.2542,VALID,355,VALID,1.21367,
2009-08-22, 02:42:05,VALID,999.892,VALID,0,VALID,92.6465,VALID,0,VALID,23.2737,VALID,358,VALID,0.808203,
2009-08-22, 02:43:05,VALID,999.886,VALID,0,VALID,92.5702,VALID,0,VALID,23.2719,VALID,4,VALID,1.30898,
2009-08-22, 02:44:05,VALID,999.874,VALID,0,VALID,92.4023,VALID,0,VALID,23.3127,VALID,7,VALID,1.43633,
2009-08-22, 02:45:05,VALID,999.913,VALID,0,VALID,92.326,VALID,0,VALID,23.3127,VALID,6,VALID,1.0918,
2009-08-22, 02:46:05,VALID,999.884,VALID,0,VALID,92.3031,VALID,0,VALID,23.3518,VALID,350,VALID,1.05547,
2009-08-22, 02:47:05,VALID,999.89,VALID,0,VALID,92.265,VALID,0,VALID,23.3713,VALID,352,VALID,0.863672,
2009-08-22, 02:48:05,VALID,999.867,VALID,0,VALID,92.1582,VALID,0,VALID,23.4103,VALID,358,VALID,0.739844,
2009-08-22, 02:49:05,VALID,999.842,VALID,0,VALID,91.9903,VALID,0,VALID,23.389,VALID,12,VALID,0.970703,
2009-08-22, 02:50:05,VALID,999.831,VALID,0,VALID,91.8301,VALID,0,VALID,23.4298,VALID,37,VALID,1.05742,
2009-08-22, 02:51:05,VALID,999.806,VALID,0,VALID,91.6699,VALID,0,VALID,23.4298,VALID,42,VALID,1.07734,
2009-08-22, 02:52:05,VALID,999.748,VALID,0,VALID,91.6012,VALID,0,VALID,23.4103,VALID,53,VALID,1.27461,
2009-08-22, 02:53:05,VALID,999.707,VALID,0,VALID,91.6623,VALID,0,VALID,23.4493,VALID,71,VALID,1.48906,
2009-08-22, 02:54:05,VALID,999.693,VALID,0,VALID,91.5783,VALID,0,VALID,23.4298,VALID,73,VALID,1.53203,
2009-08-22, 02:55:05,VALID,999.655,VALID,0,VALID,91.6851,VALID,0,VALID,23.4298,VALID,71,VALID,1.48516,
2009-08-22, 02:56:05,VALID,999.632,VALID,0,VALID,91.8225,VALID,0,VALID,23.4493,VALID,77,VALID,0.967578,
2009-08-22, 02:57:05,VALID,999.617,VALID,0,VALID,91.7462,VALID,0,VALID,23.4263,VALID,95,VALID,0.871875,
2009-08-22, 02:58:05,VALID,999.598,VALID,0,VALID,91.7996,VALID,0,VALID,23.4085,VALID,94,VALID,0.71875,
2009-08-22, 02:59:05,VALID,999.585,VALID,0,VALID,91.8988,VALID,0,VALID,23.3872,VALID,96,VALID,0.849219,
2009-08-22, 03:00:05,VALID,999.542,VALID,0,VALID,91.8759,VALID,0,VALID,23.428,VALID,110,VALID,1.16992,
2009-08-22, 03:01:05,VALID,999.54,VALID,0,VALID,91.9369,VALID,0.112286,VALID,23.428,VALID,127,VALID,1.21953,
2009-08-22, 03:02:05,VALID,999.519,VALID,0,VALID,91.9598,VALID,0,VALID,23.4475,VALID,126,VALID,1.2168,
2009-08-22, 03:03:05,VALID,999.482,VALID,0,VALID,91.8911,VALID,0,VALID,23.4067,VALID,117,VALID,1.38477,
2009-08-22, 03:04:05,VALID,999.465,VALID,0,VALID,91.8911,VALID,0,VALID,23.4085,VALID,112,VALID,0.632422,
2009-08-22, 03:05:05,VALID,999.424,VALID,0,VALID,91.9217,VALID,0.112286,VALID,23.4067,VALID,103,VALID,0.565234,
2009-08-22, 03:06:05,VALID,999.445,VALID,0,VALID,91.9522,VALID,0.112286,VALID,23.428,VALID,65,VALID,0.783984,
2009-08-22, 03:07:05,VALID,999.413,VALID,0,VALID,91.9445,VALID,0.112286,VALID,23.4475,VALID,59,VALID,1.10156,
2009-08-22, 03:08:05,VALID,999.383,VALID,0,VALID,91.8683,VALID,0,VALID,23.4671,VALID,66,VALID,0.990234,
2009-08-22, 03:09:05,VALID,999.327,VALID,0,VALID,91.8606,VALID,0,VALID,23.4671,VALID,71,VALID,1.03437,
2009-08-22, 03:10:05,VALID,999.319,VALID,0,VALID,91.8301,VALID,0,VALID,23.4671,VALID,88,VALID,1.58203,
2009-08-22, 03:11:05,VALID,999.312,VALID,0,VALID,91.7691,VALID,0,VALID,23.4475,VALID,95,VALID,1.33555,
2009-08-22, 03:12:05,VALID,999.273,VALID,0,VALID,91.6775,VALID,0,VALID,23.4067,VALID,97,VALID,1.69297,
2009-08-22, 03:13:05,VALID,999.231,VALID,0,VALID,91.5402,VALID,0,VALID,23.428,VALID,92,VALID,1.67227,
2009-08-22, 03:14:05,VALID,999.222,VALID,0,VALID,91.6088,VALID,0,VALID,23.4067,VALID,101,VALID,1.13203,
2009-08-22, 03:15:05,VALID,999.194,VALID,0,VALID,91.5631,VALID,0.112286,VALID,23.4067,VALID,105,VALID,1.83438,
2009-08-22, 03:16:05,VALID,999.215,VALID,0,VALID,91.6012,VALID,0,VALID,23.4085,VALID,104,VALID,1.9875,
2009-08-22, 03:17:05,VALID,999.154,VALID,0,VALID,91.6546,VALID,0,VALID,23.4085,VALID,98,VALID,1.76563,
2009-08-22, 03:18:05,VALID,999.107,VALID,0,VALID,91.7157,VALID,0,VALID,23.389,VALID,92,VALID,1.6543,
2009-08-22, 03:19:05,VALID,999.074,VALID,0,VALID,91.5707,VALID,0,VALID,23.3695,VALID,102,VALID,2.32344,
2009-08-22, 03:20:05,VALID,999.06,VALID,0,VALID,91.5707,VALID,0,VALID,23.3695,VALID,101,VALID,1.69883,
2009-08-22, 03:21:05,VALID,999.027,VALID,0,VALID,91.4715,VALID,0,VALID,23.389,VALID,101,VALID,1.65508,
2009-08-22, 03:22:05,VALID,998.994,VALID,0,VALID,91.4334,VALID,0,VALID,23.389,VALID,97,VALID,1.57539,
2009-08-22, 03:23:05,VALID,999.003,VALID,0,VALID,91.4257,VALID,0.112286,VALID,23.3677,VALID,86,VALID,1.27461,
2009-08-22, 03:24:05,VALID,999.005,VALID,0,VALID,91.4105,VALID,0,VALID,23.3677,VALID,71,VALID,1.15039,
2009-08-22, 03:25:05,VALID,999.03,VALID,0,VALID,91.4334,VALID,0,VALID,23.4085,VALID,56,VALID,0.683594,
2009-08-22, 03:26:05,VALID,999.015,VALID,0,VALID,91.4486,VALID,0.112286,VALID,23.428,VALID,26,VALID,0.746875,
2009-08-22, 03:27:05,VALID,999.064,VALID,0,VALID,91.4791,VALID,0,VALID,23.4103,VALID,356,VALID,0.783203,
2009-08-22, 03:28:05,VALID,999.09,VALID,0,VALID,91.5783,VALID,0,VALID,23.3713,VALID,343,VALID,0.818359,
2009-08-22, 03:29:05,VALID,999.075,VALID,0,VALID,91.5554,VALID,0,VALID,23.3695,VALID,318,VALID,0.551562,
2009-08-22, 03:30:05,VALID,999.082,VALID,0,VALID,91.5936,VALID,0,VALID,23.3695,VALID,318,VALID,0.247656,
2009-08-22, 03:31:05,VALID,999.049,VALID,0,VALID,91.6088,VALID,0,VALID,23.35,VALID,318,VALID,0,
2009-08-22, 03:32:05,VALID,999.057,VALID,0,VALID,91.5936,VALID,0,VALID,23.35,VALID,318,VALID,0,
2009-08-22, 03:33:05,VALID,999.071,VALID,0,VALID,91.6165,VALID,0,VALID,23.3713,VALID,318,VALID,0.182812,
2009-08-22, 03:34:05,VALID,999.065,VALID,0,VALID,91.6699,VALID,0,VALID,23.3695,VALID,250,VALID,0.303125,
2009-08-22, 03:35:05,VALID,999.1,VALID,0,VALID,91.6699,VALID,0,VALID,23.3695,VALID,250,VALID,0.189844,
2009-08-22, 03:36:05,VALID,999.116,VALID,0,VALID,91.708,VALID,0,VALID,23.3713,VALID,250,VALID,0.0988281,
2009-08-22, 03:37:05,VALID,999.14,VALID,0,VALID,91.7004,VALID,0,VALID,23.3713,VALID,250,VALID,0,
2009-08-22, 03:38:05,VALID,999.162,VALID,0,VALID,91.6623,VALID,0,VALID,23.3518,VALID,250,VALID,0,
2009-08-22, 03:39:05,VALID,999.174,VALID,0,VALID,91.7233,VALID,0,VALID,23.35,VALID,250,VALID,0,
2009-08-22, 03:40:05,VALID,999.19,VALID,0,VALID,91.7385,VALID,0,VALID,23.35,VALID,250,VALID,0,
2009-08-22, 03:41:05,VALID,999.223,VALID,0,VALID,91.8148,VALID,0,VALID,23.3695,VALID,186,VALID,0.586719,
2009-08-22, 03:42:05,VALID,999.203,VALID,0,VALID,91.8301,VALID,0,VALID,23.3677,VALID,162,VALID,0.569531,
2009-08-22, 03:43:05,VALID,999.214,VALID,0,VALID,91.7691,VALID,0,VALID,23.4067,VALID,161,VALID,0.654688,
2009-08-22, 03:44:05,VALID,999.17,VALID,0,VALID,91.7385,VALID,0,VALID,23.4263,VALID,143,VALID,0.571484,
2009-08-22, 03:45:05,VALID,999.208,VALID,0,VALID,91.6851,VALID,0.112286,VALID,23.4475,VALID,142,VALID,0.442969,
2009-08-22, 03:46:05,VALID,999.22,VALID,0,VALID,91.586,VALID,0.112286,VALID,23.4671,VALID,142,VALID,0.410156,